Lid_Strength_Index
9 9 9 9 9 8 8 8 8 8 8 7 7 7 6 6 7 7 6 6 7 8 9 9 9 9 9 9 10 9 9 9
9 8 9 9 9 9 9 8 8 8 9 9 8 8 8 7 7 7 7 7 7 9 9 10 10 10 10 10 10 10 10 10
9 9 10 10 9 9 9 9 9 9 9 9 8 8 8 8 7 8 7 7 8 9 10 10 10 10 11 11 11 11 11 10
9 9 10 10 10 10 10 10 9 9 9 9 9 8 9 9 9 9 8 7 8 9 10 10 10 10 11 11 11 11 12 11
9 9 10 10 10 9 9 9 9 9 9 9 10 11 11 10 10 9 9 9 9 10 10 10 10 10 11 11 10 11 11 12
10 10 10 10 10 10 10 10 10 9 10 10 10 11 11 10 10 11 11 10 10 11 11 11 11 11 11 11 11 11 11 11
11 10 10 10 10 10 10 9 9 9 9 9 10 11 11 12 12 12 12 11 11 11 11 11 11 11 11 11 11 11 11 10
12 12 12 11 11 11 10 9 9 10 9 9 10 10 11 11 12 12 12 12 12 12 12 12 12 11 11 11 11 11 11 11
12 12 12 11 10 11 11 11 11 10 10 10 10 10 10 11 11 12 12 12 12 12 12 11 11 10 10 10 10 10 10 10
11 11 12 12 11 11 12 11 11 11 11 10 11 11 11 11 11 12 12 12 12 12 11 11 10 11 11 11 11 11 11 11
11 12 12 11 11 11 11 11 11 11 11 11 10 10 10 11 12 12 11 11 11 10 11 11 11 12 12 11 11 11 11 12
13 14 13 13 12 12 12 12 12 12 12 11 11 11 11 11 11 11 11 10 11 11 11 12 12 13 12 11 11 11 11 12
13 13 13 15 15 13 13 12 12 11 11 12 12 12 11 10 10 11 10 11 12 12 12 13 13 13 13 12 10 10 11 12
13 13 14 13 13 13 12 12 13 12 12 12 11 11 10 11 10 11 11 11 12 12 12 13 12 12 12 12 11 11 11 12
13 14 13 13 13 13 13 13 14 14 12 12 11 11 11 11 10 10 11 11 12 12 12 12 12 12 11 11 11 11 12 12
13 13 14 13 13 13 12 12 12 11 12 11 11 10 10 10 10 10 11 11 11 11 12 13 14 12 11 11 11 12 12 13
12 12 12 12 13 13 11 11 10 9 9 10 10 10 10 10 11 10 10 11 11 12 13 16 16 13 10 10 11 13 13 14
11 10 11 12 12 11 11 10 9 9 10 10 10 10 10 11 11 11 12 12 11 12 14 15 16 15 10 11 11 15 16 17
10 10 11 11 12 12 11 10 10 10 10 10 10 10 10 11 11 12 12 12 13 13 12 12 13 12 10 11 12 17 18 18